SBI6429 UIII-UIUU

Flight info

Callsign SBI6429
Flight time 0h 26m
Altitude 17000
Route GOLOS5C GOLOS A810 KUDAR A806 OSTUN OSTUN1N
Aircraft A319/M-SDE3FGHIRWY/LB1

Departure

Time 2026-04-21 15:04
Airport Irkutsk International Airport (UIII)

Arrival

Time 2026-04-21 15:30
Airport Baikal International Airport (UIUU)
Time Latitude Longitude Altitude Speed Heading
2026-04-21 14:02 52.27204 104.35393 1586 ft 0 kts 88°
2026-04-21 14:44 52.27204 104.35374 1586 ft 4 kts 91°
2026-04-21 14:44 52.27204 104.35331 1586 ft 3 kts 88°
2026-04-21 14:44 52.27204 104.35326 1586 ft 0 kts 88°
2026-04-21 14:54 52.27204 104.35327 1586 ft 0 kts 88°
2026-04-21 14:54 52.27204 104.35348 1586 ft 3 kts 89°
2026-04-21 14:54 52.27205 104.35390 1586 ft 5 kts 89°
2026-04-21 14:55 52.27187 104.35454 1586 ft 8 kts 158°
2026-04-21 14:55 52.27143 104.35497 1586 ft 7 kts 104°
2026-04-21 14:55 52.27147 104.35584 1586 ft 9 kts 88°
2026-04-21 14:55 52.27150 104.35702 1586 ft 11 kts 86°
2026-04-21 14:56 52.27167 104.35823 1586 ft 11 kts 68°
2026-04-21 14:56 52.27178 104.35953 1586 ft 13 kts 87°
2026-04-21 14:56 52.27183 104.36122 1586 ft 16 kts 86°
2026-04-21 14:56 52.27176 104.36307 1586 ft 17 kts 107°
2026-04-21 14:57 52.27134 104.36496 1586 ft 18 kts 110°
2026-04-21 14:57 52.27088 104.36698 1585 ft 20 kts 110°
2026-04-21 14:57 52.27042 104.36899 1585 ft 19 kts 111°
2026-04-21 14:57 52.26997 104.37096 1585 ft 18 kts 109°
2026-04-21 14:58 52.27021 104.37266 1585 ft 16 kts 51°
2026-04-21 14:58 52.27087 104.37412 1586 ft 15 kts 50°
2026-04-21 14:58 52.27106 104.37458 1586 ft 0 kts 59°
2026-04-21 14:59 52.27107 104.37458 1586 ft 0 kts 59°
2026-04-21 15:00 52.27108 104.37463 1586 ft 3 kts 58°
2026-04-21 15:01 52.27137 104.37532 1587 ft 9 kts 54°
2026-04-21 15:01 52.27173 104.37607 1588 ft 8 kts 55°
2026-04-21 15:01 52.27185 104.37687 1589 ft 7 kts 98°
2026-04-21 15:01 52.27170 104.37758 1590 ft 6 kts 115°
2026-04-21 15:02 52.27167 104.37771 1590 ft 0 kts 114°
2026-04-21 15:03 52.27154 104.37818 1591 ft 15 kts 114°
2026-04-21 15:03 52.27001 104.38386 1604 ft 92 kts 113°
2026-04-21 15:03 52.26663 104.39654 1639 ft 148 kts 114°
2026-04-21 15:04 52.26192 104.41285 2095 ft 163 kts 117°
2026-04-21 15:04 52.25737 104.42979 2883 ft 166 kts 115°
2026-04-21 15:04 52.25591 104.44889 3561 ft 174 kts 92°
2026-04-21 15:04 52.25683 104.46898 4158 ft 185 kts 88°
2026-04-21 15:05 52.25793 104.49089 4524 ft 208 kts 87°
2026-04-21 15:05 52.26015 104.54300 5279 ft 253 kts 88°
2026-04-21 15:05 52.26123 104.57302 5836 ft 275 kts 88°
2026-04-21 15:06 52.26231 104.60477 6732 ft 284 kts 87°
2026-04-21 15:06 52.26337 104.63731 7644 ft 291 kts 87°
2026-04-21 15:06 52.26441 104.67078 8546 ft 299 kts 86°
2026-04-21 15:06 52.26545 104.70514 9451 ft 307 kts 86°
2026-04-21 15:07 52.26649 104.74055 10187 ft 322 kts 85°
2026-04-21 15:07 52.26756 104.77837 10577 ft 346 kts 85°
2026-04-21 15:07 52.26870 104.81885 11052 ft 364 kts 85°
2026-04-21 15:07 52.26985 104.86060 11863 ft 371 kts 85°
2026-04-21 15:08 52.27098 104.90290 12739 ft 375 kts 85°
2026-04-21 15:08 52.27208 104.94572 13614 ft 380 kts 85°
2026-04-21 15:08 52.27320 104.98906 14401 ft 384 kts 84°
2026-04-21 15:08 52.27434 105.03292 15143 ft 390 kts 84°
2026-04-21 15:09 52.27546 105.07679 15888 ft 395 kts 84°
2026-04-21 15:09 52.27661 105.12247 16604 ft 400 kts 84°
2026-04-21 15:09 52.27774 105.16742 16914 ft 403 kts 84°
2026-04-21 15:09 52.27889 105.21323 16992 ft 404 kts 84°
2026-04-21 15:10 52.27995 105.25905 16993 ft 404 kts 84°
2026-04-21 15:10 52.28098 105.30490 16996 ft 404 kts 84°
2026-04-21 15:10 52.28200 105.35075 16997 ft 404 kts 84°
2026-04-21 15:10 52.28298 105.39659 17009 ft 404 kts 84°
2026-04-21 15:11 52.28392 105.44252 17011 ft 404 kts 84°
2026-04-21 15:11 52.28483 105.48835 17014 ft 404 kts 84°
2026-04-21 15:11 52.28572 105.53428 17018 ft 405 kts 84°
2026-04-21 15:11 52.28661 105.58021 17022 ft 405 kts 84°
2026-04-21 15:12 52.28750 105.62611 17023 ft 405 kts 84°
2026-04-21 15:12 52.28837 105.67208 17024 ft 405 kts 84°
2026-04-21 15:12 52.28923 105.71802 17022 ft 405 kts 84°
2026-04-21 15:12 52.29006 105.76391 17031 ft 405 kts 85°
2026-04-21 15:13 52.29088 105.80987 17036 ft 405 kts 84°
2026-04-21 15:13 52.29169 105.85584 17035 ft 405 kts 85°
2026-04-21 15:13 52.29246 105.90185 17034 ft 405 kts 85°
2026-04-21 15:13 52.29319 105.94725 17040 ft 405 kts 85°
2026-04-21 15:14 52.29391 105.99326 17041 ft 405 kts 85°
2026-04-21 15:14 52.29461 106.03928 17042 ft 406 kts 85°
2026-04-21 15:14 52.29528 106.08534 17042 ft 406 kts 85°
2026-04-21 15:14 52.29595 106.13139 17040 ft 406 kts 85°
2026-04-21 15:15 52.29663 106.17751 17039 ft 406 kts 85°
2026-04-21 15:15 52.29730 106.22344 17039 ft 406 kts 85°
2026-04-21 15:15 52.29796 106.26961 17041 ft 406 kts 85°
2026-04-21 15:15 52.29856 106.31569 17039 ft 406 kts 85°
2026-04-21 15:16 52.29913 106.36183 17039 ft 406 kts 85°
2026-04-21 15:16 52.29905 106.40797 17036 ft 408 kts 91°
2026-04-21 15:16 52.29463 106.45394 17038 ft 412 kts 102°
2026-04-21 15:16 52.28555 106.49833 17037 ft 413 kts 112°
2026-04-21 15:17 52.27181 106.53954 17032 ft 414 kts 124°
2026-04-21 15:17 52.25415 106.57655 17031 ft 414 kts 130°
2026-04-21 15:17 52.23589 106.61279 17022 ft 413 kts 130°
2026-04-21 15:17 52.21752 106.64887 17020 ft 413 kts 130°
2026-04-21 15:18 52.19914 106.68484 16864 ft 413 kts 131°
2026-04-21 15:18 52.18060 106.72110 15818 ft 422 kts 130°
2026-04-21 15:18 52.16197 106.75764 15089 ft 425 kts 130°
2026-04-21 15:18 52.14317 106.79454 14511 ft 420 kts 130°
2026-04-21 15:19 52.12471 106.83079 13682 ft 414 kts 131°
2026-04-21 15:19 52.10649 106.86654 12761 ft 407 kts 131°
2026-04-21 15:19 52.08846 106.90154 11819 ft 400 kts 132°
2026-04-21 15:19 52.07071 106.93551 11222 ft 385 kts 133°
2026-04-21 15:20 52.05173 106.96409 11025 ft 359 kts 148°
2026-04-21 15:20 52.03098 106.98307 10978 ft 327 kts 162°
2026-04-21 15:20 52.01010 106.99359 10988 ft 307 kts 175°
2026-04-21 15:20 51.98920 106.99698 10985 ft 298 kts 187°
2026-04-21 15:21 51.96871 106.99482 10988 ft 295 kts 191°
2026-04-21 15:21 51.94818 106.99210 10677 ft 297 kts 191°
2026-04-21 15:21 51.92763 106.98943 10318 ft 296 kts 191°
2026-04-21 15:21 51.90744 106.98685 9976 ft 294 kts 191°
2026-04-21 15:22 51.88715 106.98428 9589 ft 291 kts 190°
2026-04-21 15:22 51.86675 106.98165 8791 ft 299 kts 189°
2026-04-21 15:22 51.84555 106.98222 8057 ft 311 kts 176°
2026-04-21 15:22 51.82434 106.98943 7630 ft 310 kts 171°
2026-04-21 15:23 51.80345 106.99692 7323 ft 303 kts 171°
2026-04-21 15:23 51.78401 107.00639 7187 ft 283 kts 157°
2026-04-21 15:23 51.76901 107.02519 7056 ft 269 kts 130°
2026-04-21 15:23 51.76132 107.05153 6922 ft 254 kts 101°
2026-04-21 15:24 51.76187 107.07963 6450 ft 248 kts 74°
2026-04-21 15:24 51.76595 107.10631 6051 ft 250 kts 79°
2026-04-21 15:24 51.76925 107.13374 5429 ft 254 kts 79°
2026-04-21 15:24 51.77278 107.16110 5046 ft 245 kts 79°
2026-04-21 15:25 51.77631 107.18746 4711 ft 236 kts 80°
2026-04-21 15:25 51.77972 107.21296 4378 ft 227 kts 79°
2026-04-21 15:25 51.78292 107.23694 4070 ft 211 kts 79°
2026-04-21 15:25 51.78588 107.25924 3787 ft 196 kts 79°
2026-04-21 15:26 51.78858 107.27954 3540 ft 181 kts 80°
2026-04-21 15:26 51.79112 107.29875 3251 ft 169 kts 79°
2026-04-21 15:26 51.79123 107.29956 3246 ft 168 kts 79°
2026-04-21 15:27 51.79322 107.31489 3094 ft 156 kts 78°
2026-04-21 15:28 51.79542 107.33144 2840 ft 144 kts 77°
2026-04-21 15:28 51.79742 107.34651 2620 ft 136 kts 76°
2026-04-21 15:28 51.79874 107.35651 2486 ft 134 kts 75°
2026-04-21 15:28 51.80003 107.37448 2254 ft 132 kts 80°
2026-04-21 15:29 51.80148 107.38912 2065 ft 130 kts 78°
2026-04-21 15:29 51.80326 107.40356 1882 ft 130 kts 76°
2026-04-21 15:29 51.80507 107.41792 1718 ft 130 kts 77°
2026-04-21 15:29 51.80691 107.43152 1683 ft 115 kts 77°
2026-04-21 15:30 51.80817 107.44140 1688 ft 65 kts 78°
2026-04-21 15:30 51.80886 107.44643 1694 ft 36 kts 78°
2026-04-21 15:30 51.80908 107.44885 1688 ft 2 kts 143°
2026-04-21 15:30 51.80877 107.44888 1687 ft 6 kts 173°
2026-04-21 15:31 51.80823 107.44897 1686 ft 5 kts 174°
2026-04-21 15:31 51.80813 107.44899 1684 ft 4 kts 174°
2026-04-21 15:31 51.80757 107.44913 1685 ft 11 kts 174°
2026-04-21 15:31 51.80670 107.44907 1688 ft 12 kts 220°
2026-04-21 15:32 51.80663 107.44773 1684 ft 14 kts 275°
2026-04-21 15:32 51.80670 107.44579 1684 ft 20 kts 273°
2026-04-21 15:32 51.80673 107.44509 1684 ft 0 kts 275°
2026-04-21 15:32 51.80674 107.44502 1684 ft 3 kts 275°
2026-04-21 15:33 51.80679 107.44399 1684 ft 13 kts 275°
2026-04-21 15:33 51.80655 107.44324 1688 ft 8 kts 209°
2026-04-21 15:33 51.80616 107.44133 1686 ft 27 kts 259°
2026-04-21 15:33 51.80601 107.44028 1686 ft 1 kts 252°
2026-04-21 15:34 51.80596 107.44013 1685 ft 2 kts 243°
2026-04-21 15:34 51.80571 107.43996 1684 ft 4 kts 183°
2026-04-21 15:34 51.80553 107.44000 1685 ft 2 kts 170°
2026-04-21 15:34 51.80546 107.44002 1692 ft 0 kts 169°